metlocid,date_time,avg_wspd,std_wspd,min_wspd,max_wspd,n_wspd,n_comments
BRHM,12/1/94,6.12576923,1.478202097,3.3,8.76,26,0
BRHM,1/1/95,4.365806455,2.029962874,0.52,11.1,744,0
BRHM,2/1/95,4.944241069,3.461216287,0.25,16.85,672,0
BRHM,3/1/95,2.761209683,2.935535918,0.05,16.63,744,0
BRHM,4/1/95,2.577944442,3.309812597,0.05,15.62,720,0
BRHM,5/1/95,2.880268819,3.502876964,0.03,19.75,744,0
BRHM,6/1/95,4.319027771,4.65596288,0.04,18.84,720,0
BRHM,7/1/95,2.698534943,3.027361162,0.18,16.29,744,0
BRHM,8/1/95,6.293928581,5.454617197,0,19.31,252,1
BRHM,11/1/95,2.743962808,1.63406288,0.07,10,699,0
BRHM,12/1/95,2.129327956,0.872400005,0.04,4.59,2976,0
BRHM,1/1/96,2.376888441,1.057751698,0.03,6.5,2976,0
BRHM,2/1/96,1.721048848,0.963335497,0,5,2784,3
BRHM,3/1/96,1.779267479,2.13046181,0,11.6,2976,14
BRHM,4/1/96,2.237904556,2.040698801,0,9.8,1823,0
BRHM,11/1/96,3.907978401,1.994112568,0,9.8,1667,6
BRHM,12/1/96,4.169993278,1.882168464,0.1,12,2976,0
BRHM,1/1/97,3.880597014,1.599865339,0,7.6,2948,0
BRHM,2/1/97,3.324553569,2.210448128,0,13.8,2688,0
BRHM,3/1/97,1.814251783,2.00678596,0,11.3,2947,10
BRHM,4/1/97,1.812812504,2.484910857,0,15.4,2880,27
BRHM,5/1/97,4.138340057,4.094164547,0,17.9,2976,12
BRHM,6/1/97,3.845381949,4.10706313,0,16.9,2880,8
BRHM,7/1/97,2.262264792,3.053092797,0,14.8,2976,22
BRHM,8/1/97,2.818447582,3.684777553,0,18.6,2976,6
BRHM,9/1/97,2.953266335,3.32549346,0,15.4,2786,2
BRHM,10/1/97,3.653091396,3.139928354,0,17.8,2976,4
BRHM,11/1/97,4.29513382,2.218130183,0.2,12.3,2877,0
BRHM,12/1/97,4.344791666,1.677042143,0,9.5,2976,2
BRHM,1/1/98,3.95680672,1.751258524,0,8.6,2975,1
BRHM,2/1/98,3.711421134,2.90134778,0,14.8,2688,2
BRHM,3/1/98,1.991196236,2.119055547,0,10.5,2976,4
BRHM,4/1/98,2.553819449,3.237766566,0,16.4,2880,12
BRHM,5/1/98,2.910416671,3.276557797,0,15,2976,4
BRHM,6/1/98,3.929618056,4.092968051,0,19.9,2880,1
BRHM,7/1/98,2.906283605,3.440335754,0,19.2,2976,6
BRHM,8/1/98,2.444926076,3.909216998,0,21.1,2976,12
BRHM,9/1/98,1.163958336,1.50103575,0,9.6,2880,17
BRHM,10/1/98,3.02409274,2.936220776,0,16.8,2976,3
BRHM,11/1/98,3.938333336,2.205853466,0,12,2880,0
BRHM,12/1/98,5.099563173,2.22065851,0.1,15.3,2976,0
BRHM,1/1/99,3.764684138,1.732762724,0,10.3,2976,0
BRHM,2/1/99,3.075706843,2.219452826,0,11.3,2688,1
BRHM,3/1/99,1.772412637,2.032125608,0,9.1,2976,11
BRHM,4/1/99,1.331145837,1.612929291,0,9.5,2880,25
BRHM,5/1/99,2.433434144,2.989971101,0,15.6,2976,20
BRHM,6/1/99,2.363715276,2.803850262,0,13.6,2880,118
BRHM,7/1/99,3.205073921,3.485031291,0,17.5,2976,0
BRHM,8/1/99,2.194455646,3.180088177,0,14.7,2976,33
BRHM,9/1/99,2.173194448,2.650318041,0,14.4,2880,5
BRHM,10/1/99,3.650336024,3.878604087,0,22.3,2976,3
BRHM,11/1/99,3.756770829,1.952752795,0,12,2880,1
BRHM,12/1/99,4.68427419,2.020769806,0.2,13.7,2976,0
BRHM,1/1/00,4.277184137,1.859299661,0,10.8,2976,0
BRHM,2/1/00,4.327765805,3.052263858,0,15.8,2784,1
BRHM,3/1/00,2.58377016,2.981877249,0,17.2,2976,3
BRHM,4/1/00,1.732986113,1.986051245,0,10.3,2880,7
BRHM,5/1/00,1.839180112,2.28635056,0,12.6,2976,5
BRHM,6/1/00,2.171631947,3.00331831,0,17.8,2880,3
BRHM,7/1/00,4.463642473,4.368917183,0,18.7,2976,6
BRHM,8/1/00,3.955880382,4.353482804,0,19.4,2976,6
BRHM,9/1/00,4.626388893,5.139345349,0,21.9,2880,0
BRHM,10/1/00,2.484408603,2.02465115,0,10.3,2976,1
BRHM,11/1/00,4.603819443,2.595349327,0,14.9,2880,0
BRHM,12/1/00,4.596202959,1.679552474,0.2,9.1,2976,0
BRHM,1/1/01,4.378326613,1.94148796,0,11.4,2976,2
BRHM,2/1/01,3.195014877,1.833141247,0.1,9.2,2688,0
BRHM,3/1/01,2.34700941,3.040320274,0,21,2976,4
BRHM,4/1/01,2.900625001,3.559778731,0,16.8,2880,5
BRHM,5/1/01,3.775571243,4.371977007,0,19.3,2976,10
BRHM,6/1/01,3.62618056,3.551628155,0,15.3,2880,3
BRHM,7/1/01,3.514482528,4.130056494,0,17.5,2976,9
BRHM,8/1/01,1.57510081,2.121521966,0,14.6,2976,34
BRHM,9/1/01,2.264652781,2.769038218,0,15.3,2880,12
BRHM,10/1/01,3.408971773,2.764657528,0,14.3,2976,6
BRHM,11/1/01,4.250937503,2.168805139,0,12.6,2880,3
BRHM,12/1/01,4.719435103,2.30665373,0,17.2,2974,4
BRHM,1/1/02,4.338239246,2.315166536,0,17.4,2976,3
BRHM,2/1/02,3.871242558,2.429172888,0,13.1,2688,2
BRHM,3/1/02,3.272950272,2.800678945,0,14.3,2976,11
BRHM,4/1/02,3.215902781,3.801146593,0,18.1,2880,43
BRHM,5/1/02,3.171505378,3.281892446,0,14.4,2976,72
BRHM,6/1/02,2.512951391,3.373094351,0,19,2880,29
BRHM,7/1/02,3.192809142,3.821292231,0,20.3,2976,21
BRHM,8/1/02,2.930040328,3.467445454,0,17,2976,34
BRHM,9/1/02,1.894097228,2.392887731,0,13.7,2880,29
BRHM,10/1/02,2.070799733,2.235282583,0,11.5,2976,42
BRHM,11/1/02,3.728645835,2.678652879,0,15.8,2880,16
BRHM,12/1/02,4.438306446,1.712655126,0.1,11.8,2976,0
BRHM,1/1/03,3.461525535,1.781811437,0,9.6,2976,3
BRHM,2/1/03,2.53519345,1.643343271,0,8.1,2688,1
BRHM,3/1/03,2.271673391,2.613526681,0,12.4,2976,44
BRHM,4/1/03,1.444027781,2.196125079,0,17.7,2880,55
BRHM,5/1/03,4.527318553,4.498196429,0,20.5,2976,51
BRHM,6/1/03,2.175902781,3.223247638,0,17.8,2880,11
BRHM,7/1/03,3.588978498,3.903100193,0,16.5,2976,6
BRHM,8/1/03,2.717842746,3.107794629,0,17.7,2976,16
BRHM,9/1/03,4.121909729,4.997000412,0,21.2,2880,27
BRHM,10/1/03,4.095732526,3.748651555,0.1,17.7,2976,0
BRHM,11/1/03,3.87722222,2.037306259,0,9.7,2880,4
BRHM,12/1/03,3.971706986,1.82165478,0,12.7,2976,1
BRHM,1/1/04,4.183702958,1.787824334,0,9.8,2976,3
BRHM,2/1/04,2.994468388,1.86686742,0,8.5,2784,4
BRHM,3/1/04,1.642237903,1.964696877,0,14.4,2976,53
BRHM,4/1/04,1.998229167,2.321314989,0,11.3,2880,17
BRHM,5/1/04,3.429334683,4.194850351,0,20.2,2976,37
BRHM,6/1/04,5.253055555,5.736265532,0,24.9,2880,9
BRHM,7/1/04,2.751948927,3.375817546,0,16.8,2976,16
BRHM,8/1/04,4.834038983,5.455833419,0,26,2976,3
BRHM,9/1/04,2.417951389,3.031648611,0,16.4,2880,23
BRHM,10/1/04,3.060752687,3.05181229,0,16.8,2976,14
BRHM,11/1/04,4.387847223,2.447183996,0,13.5,2880,2
BRHM,12/1/04,4.321505376,1.73171734,0,11.7,2976,6
BRHM,1/1/05,3.783058823,1.776630991,0,10.8,2975,1
BRHM,2/1/05,3.140736607,2.276733777,0,11.5,2688,21
BRHM,3/1/05,2.009543014,2.211808568,0,12.9,2976,19
BRHM,4/1/05,1.905625002,2.229485139,0,9.9,2880,22
BRHM,5/1/05,3.291733873,3.387244319,0,16.2,2976,7
BRHM,6/1/05,4.126736114,4.72267451,0,18.3,2880,11
BRHM,7/1/05,2.895967744,4.365145051,0,23.7,2976,34
BRHM,8/1/05,3.257190864,4.11757399,0,18.3,2976,17
BRHM,9/1/05,3.057708335,3.567409153,0,19.7,2880,15
BRHM,10/1/05,4.363474461,3.627840976,0,17.6,2976,2
BRHM,11/1/05,4.198090278,2.13312904,0,10.9,2880,1
BRHM,12/1/05,4.11972446,1.617965544,0.2,10.7,2976,0
BRHM,1/1/06,4.253005464,1.596325285,0.1,7.7,1098,0
BRHM,5/1/06,2.219230765,2.35575013,0.1,11.5,286,0
BRHM,6/1/06,3.682657738,3.527516594,0,13.8,2837,3
BRHM,7/1/06,2.438743282,3.614850925,0.1,20,2976,0
BRHM,8/1/06,3.366801079,3.584291592,0,18.5,2976,1
BRHM,9/1/06,3.106250002,3.518191077,0,15,2880,2
BRHM,10/1/06,1.706922045,1.806955508,0,10.9,2976,2
BRHM,11/1/06,2.647083329,1.800306353,0,10.7,2880,6
BRHM,12/1/06,4.478259406,1.915848401,0.1,13.1,2976,0
BRHM,1/1/07,3.982077049,1.736080261,0,9.8,1791,1
BRHM,9/1/07,4.512700883,4.217072762,0.1,19.1,1929,0
BRHM,10/1/07,3.178595431,2.96618174,0,15.7,2976,11
BRHM,11/1/07,3.299687499,2.021969446,0,11.5,2880,3
BRHM,12/1/07,4.324428763,1.678984692,0.1,10.2,2976,0
BRHM,1/1/08,3.748352389,1.7261027,0.1,9.5,2974,0
BRHM,2/1/08,3.177011494,1.794332591,0,9.1,2784,2
BRHM,3/1/08,2.348622314,2.570237824,0,15.7,2976,11
BRHM,4/1/08,2.278541669,2.570940948,0,13.8,2880,6
BRHM,5/1/08,2.747681453,3.233656199,0,15.3,2976,2
BRHM,6/1/08,3.52920139,4.33105117,0,22.6,2880,1
BRHM,7/1/08,2.982526882,3.706681285,0.1,16.8,2976,0
BRHM,8/1/08,2.836861559,3.510019574,0,18.7,2976,2
BRHM,9/1/08,4.750972222,3.848550799,0.1,17.1,2880,0
BRHM,10/1/08,2.644153225,2.007716065,0,10.8,2976,5
BRHM,11/1/08,4.239375,2.332322295,0,12.9,2880,5
BRHM,12/1/08,4.427788978,1.952545578,0.1,15.4,2976,1
BRHM,1/1/09,4.164348118,1.892258211,0,13.8,2976,1
BRHM,2/1/09,2.954389883,2.150125557,0,10.8,2688,11
BRHM,3/1/09,1.769220431,1.714095845,0,11.3,2976,45
BRHM,4/1/09,3.395590279,3.890333846,0,16.5,2880,35
BRHM,5/1/09,2.447345432,3.227130733,0,13.4,2976,52
BRHM,6/1/09,3.44545139,3.444181021,0,14.9,2880,31
BRHM,7/1/09,3.4123992,3.686074303,0,17.3,2976,18
BRHM,8/1/09,3.443615597,4.212165607,0,18.6,2976,29
BRHM,9/1/09,4.537708332,5.017851587,0,19.4,2880,38
BRHM,10/1/09,2.383501346,2.062541462,0,10,2976,29
BRHM,11/1/09,3.360416666,2.144552742,0.1,12.2,2880,0
BRHM,12/1/09,3.960638653,1.564938298,0.3,8.1,2975,1
BRHM,1/1/10,3.973387093,1.634585474,0,11.3,2976,1
BRHM,2/1/10,2.830654763,2.185552763,0,13.6,2688,30
BRHM,3/1/10,1.526579302,1.677832493,0,10.8,2976,65
BRHM,4/1/10,2.067534724,2.573956079,0,10.5,2880,112
BRHM,5/1/10,2.321135756,2.700822194,0,10.4,2976,63
BRHM,6/1/10,2.005277782,2.587180827,0,11.5,2880,64
BRHM,7/1/10,3.085853499,3.97522557,0,20,2976,53
BRHM,8/1/10,3.30883737,4.085994838,0,20.5,2976,25
BRHM,9/1/10,2.154687503,2.782466108,0,16,2880,57
BRHM,10/1/10,2.986659944,2.917173738,0,19.7,2976,15
BRHM,11/1/10,5.01682504,2.937975871,0,20.4,1789,3
BRHM,1/1/12,3.605098046,1.979584788,0,8.6,510,1
BRHM,2/1/12,3.649748557,2.853122661,0,16.1,2784,16
BRHM,3/1/12,2.472983871,2.277463422,0,15.5,2976,14
BRHM,4/1/12,2.502951389,3.007652904,0,16.1,2880,46
BRHM,5/1/12,5.529872313,5.106188513,0,19.4,2976,13
BRHM,6/1/12,3.442326386,4.216115158,0,20.4,2880,15
BRHM,7/1/12,1.584912636,2.008507332,0,10.9,2976,35
BRHM,8/1/12,4.372412636,4.888879682,0,23.8,2976,13
BRHM,9/1/12,2.801285446,3.288851085,0,13.4,2645,25
BRHM,10/1/12,2.57735215,2.472407292,0,15.6,2976,23
BRHM,11/1/12,3.404933979,1.911097598,0,9,2878,9
BRHM,12/1/12,4.133434138,1.594522486,0.2,9,2976,0
BRHM,1/1/13,3.953393817,1.882159115,0,10.5,2976,4
BRHM,2/1/13,2.945982142,1.990453265,0,10.5,2688,10
BRHM,3/1/13,2.145665322,1.935796715,0,11,2976,41
BRHM,4/1/13,2.265243054,3.236571942,0,19.9,2880,113
BRHM,5/1/13,2.503125004,3.083592851,0,17.4,2976,72
BRHM,6/1/13,2.51392361,2.587356145,0,10.6,2880,42
BRHM,7/1/13,1.954872313,2.512288408,0,13.4,2976,172
BRHM,8/1/13,3.455309141,4.106241044,0,20.6,2976,46
BRHM,9/1/13,3.928819447,4.076107665,0,20.3,2880,9
BRHM,10/1/13,2.010752689,2.056742624,0,12.2,2976,59
BRHM,11/1/13,3.414932219,2.023376847,0,10.39,2877,1213
BRHM,12/1/13,4.214801745,1.638273558,0.13,9.31,2976,2976
BRHM,1/1/14,4.412237902,2.250793243,0.07,13.01,2976,2976
BRHM,2/1/14,4.10966518,2.320766696,0,12.64,2688,2688
BRHM,3/1/14,2.552923386,2.482260298,0,10.85,2976,2976
BRHM,4/1/14,3.544885418,3.820816032,0,18.91,2880,2880
BRHM,5/1/14,2.568390458,3.547840953,0,19.9,2976,2976
BRHM,6/1/14,2.345805555,2.631189392,0,16.16,2880,2880
BRHM,7/1/14,1.5593918,2.098938059,0,13.57,2976,2976
BRHM,8/1/14,3.639455646,3.595827056,0,20.13,2976,2976
BRHM,9/1/14,3.453152776,3.633762575,0,17.68,2880,2880
BRHM,10/1/14,3.482765457,2.863693269,0,14.45,2976,2976
BRHM,11/1/14,3.512298331,1.884925011,0,10.22,2876,2876
BRHM,12/1/14,4.602488231,1.718537461,0.14,9.35,2974,2974
BRHM,1/1/15,3.954912577,1.753512946,0.07,10.5,2974,2974
BRHM,2/1/15,3.674148343,2.268703515,0.06,12.27,2683,2683
BRHM,3/1/15,2.010176152,1.996703155,0.05,14.8,2952,2952
BRHM,4/1/15,1.891605027,2.323392887,0.05,11.15,2785,2785
BRHM,5/1/15,1.916932283,2.981164163,0.05,18.79,2924,2924
BRHM,6/1/15,3.683323943,4.216328154,0.05,22.18,2840,2840
BRHM,7/1/15,2.822060626,3.302249079,0.05,18.71,2936,2936
BRHM,8/1/15,3.659692146,4.058677879,0.06,22.22,2956,2956
BRHM,9/1/15,3.118637003,3.541535591,0.05,16.15,2854,2854
BRHM,10/1/15,3.237232897,2.617178547,0.05,15.14,2967,2967
BRHM,11/1/15,3.805894224,2.06956479,0.06,13.93,2874,1105
BRHM,12/1/15,4.815883736,1.943746317,0.04,13.34,2976,0
BRHM,1/1/16,4.125030243,1.904760159,0.02,10.87,2976,0
BRHM,2/1/16,3.722068968,2.359832398,0.05,12.96,2784,0
BRHM,3/1/16,2.394254036,2.548539938,0,16.82,2976,0
BRHM,4/1/16,1.306121416,1.663192482,0,8.13,1186,0
BRHM,5/1/16,4.586967073,5.292657526,0,24.44,2308,0
BRHM,6/1/16,2.078246527,2.660607813,0,14.53,2880,0
BRHM,7/1/16,1.606955286,2.62382609,0,13.47,2818,0
BRHM,8/1/16,2.00971448,2.965581362,0,18.36,2942,0
BRHM,9/1/16,2.44663889,2.988328838,0,15.75,2880,0
BRHM,10/1/16,2.813030912,2.282342599,0,11.79,2976,0
BRHM,11/1/16,4.032878475,2.715006139,0,15.02,2880,0
BRHM,12/1/16,4.542534691,2.021318154,0,16.3,2955,0
BRHM,1/1/17,4.099327956,1.775866099,0.1,10,2976,0
BRHM,2/1/17,3.546577382,1.870121223,0.1,9.6,2688,0
BRHM,3/1/17,2.013944894,1.986770641,0,9,2976,0
BRHM,4/1/17,3.487812504,3.501542473,0,15.9,2880,0
BRHM,5/1/17,3.842573928,4.320413772,0,24.3,2976,0
BRHM,6/1/17,2.483368057,2.887531334,0,17.3,2880,0
BRHM,7/1/17,3.539381724,3.694866054,0,18.6,2976,0
BRHM,8/1/17,3.304536293,3.818391968,0,17.9,2976,0
BRHM,9/1/17,3.46287153,3.502666557,0,17.52,2880,0
BRHM,10/1/17,3.385883739,2.617064887,0.04,13.22,2976,0
BRHM,11/1/17,3.608241229,2.163525441,0,15.63,2877,0
BRHM,12/1/17,4.522792344,1.690790888,0.18,10.85,2976,0
BRHM,1/1/18,3.972701616,1.642283377,0.11,7.85,2976,0
BRHM,2/1/18,3.167563247,2.459376436,0,15.1,2688,0
BRHM,3/1/18,2.445023523,2.37243405,0.01,12.55,2976,0
BRHM,4/1/18,4.192427082,4.932346864,0,19.94,2880,0
BRHM,5/1/18,1.99426747,2.471551937,0,12.22,2976,0
BRHM,6/1/18,3.443461808,3.420290402,0,19.42,2880,0
BRHM,7/1/18,4.577607529,5.424391523,0,24.37,2976,0
BRHM,8/1/18,2.463615588,3.319251719,0,16.48,2976,0
BRHM,9/1/18,3.782121525,4.431501564,0,17.71,2880,0
BRHM,10/1/18,3.574257395,2.892594139,0,14.01,2976,0
BRHM,11/1/18,3.999295141,2.216335035,0,14.01,2880,0
BRHM,12/1/18,4.351093881,2.023171787,0,12.1,2972,0
BRHM,1/1/19,3.922782929,1.629633921,0,9.97,2976,0
BRHM,2/1/19,3.308639136,1.912710107,0,9.96,2688,0
BRHM,3/1/19,2.014362232,2.023309404,0,9.36,2976,0
BRHM,4/1/19,3.022969792,3.177848149,0,14.3,2880,0
BRHM,5/1/19,3.234926411,3.526667033,0,16.15,2976,0
BRHM,6/1/19,4.342223266,4.282420758,0,19.67,2880,0
BRHM,7/1/19,3.80049865,4.419247782,0,20.43,2976,0
BRHM,8/1/19,3.053010416,3.373906552,0,14.51,2976,0
BRHM,9/1/19,3.177430557,3.180593615,0,13.58,2880,0
BRHM,10/1/19,2.727535952,1.950856579,0,10,2976,0
BRHM,11/1/19,3.60255243,1.905790628,0,10.36,2880,0
BRHM,12/1/19,4.701540587,1.769404003,0.103,10.35,2969,0
BRHM,1/1/20,4.114667677,1.774647511,0,8.66,2976,0
BRHM,2/1/20,3.117830099,2.250174594,0,11.03,2784,0
BRHM,3/1/20,3.387751679,3.663987955,0,16.46,2976,0
BRHM,4/1/20,3.465157641,4.185185904,0,20.37,2880,0
BRHM,5/1/20,2.723917341,2.826581541,0,12.05,2976,0
BRHM,6/1/20,3.820919097,4.225143447,0,18.46,2880,0
BRHM,7/1/20,3.44089247,4.002317479,0,17.41,2976,0
BRHM,8/1/20,2.849395162,3.492159175,0,19.06,2976,0
BRHM,9/1/20,2.739810763,3.22805188,0,16.49,2880,0
BRHM,10/1/20,3.465170029,3.402301191,0,15.63,2976,0
BRHM,11/1/20,3.354528469,1.830280206,0,9.54,2880,0
BRHM,12/1/20,4.160952286,1.675344656,0.03,9.09,2976,0
BRHM,1/1/21,4.430349458,2.223299821,0.043,15.83,2976,0
BRHM,2/1/21,3.231229166,2.596071004,0,13.37,2688,0
BRHM,3/1/21,2.771104163,3.044528145,0,15.76,2976,0
BRHM,4/1/21,1.800019445,2.233277708,0,10.39,2880,0
BRHM,5/1/21,2.978004374,3.643202471,0,14.2,2976,0
BRHM,6/1/21,3.893869793,4.574028969,0,24.08,2880,0
BRHM,7/1/21,2.896151882,3.168500302,0,16.45,2976,0
BRHM,8/1/21,3.198676409,4.472106658,0,19.43,2976,0
BRHM,9/1/21,3.78001007,3.840788186,0,18.42,2880,0
BRHM,10/1/21,4.805148184,4.215688793,0.022,19.77,2976,0
BRHM,11/1/21,3.648491321,1.882305549,0,11.14,2880,0
BRHM,12/1/21,4.562517136,1.899113314,0.064,11.02,2976,0
BRHM,1/1/22,4.109372771,1.910743976,0,11.06,2975,0
BRHM,2/1/22,3.372974701,1.840689887,0.04,13,2688,0
BRHM,3/1/22,3.634419693,4.018569158,0,19,2976,0
BRHM,4/1/22,2.676436111,3.518630902,0,20.04,2880,0
BRHM,5/1/22,4.611082662,4.569602908,0,23.41,2976,0
BRHM,6/1/22,2.599525348,2.914340282,0,15.5,2880,0
BRHM,7/1/22,5.883302079,5.281041155,0.004,22.41,2976,0
BRHM,8/1/22,3.218163981,3.624278864,0.006,16.44,2976,0
BRHM,9/1/22,3.820486459,4.227113143,0,16.1,2880,0
BRHM,10/1/22,3.545352148,3.496562302,0.006,21.67,2976,0
BRHM,11/1/22,4.144281255,2.071791662,0,12.24,2880,0
BRHM,12/1/22,4.559951542,2.352210888,0.194,12.87,1197,0